Regional Weather Roundup
Issued by NWS Charleston, SC

Current Version | Previous Version | Text Only | Print | Product List | Glossary On
Versions: 1 2 3 4 5 6 7 8 9 10 11 12 13 14 15 16 17 18 19 20 21 22 23 24 25 26 27 28 29 30 31 32 33 34 35 36 37 38 39 40 41 42 43 44 45 46 47 48 49 50
000 ASUS42 KCHS 281010 RWRCHS REGIONAL WEATHER ROUNDUP NATIONAL WEATHER SERVICE CHARLESTON SC 600 AM EDT MON JUL 28 2014 NOTE: "FAIR" INDICATES FEW OR NO CLOUDS BELOW 12,000 FEET WITH NO SIGNIFICANT WEATHER AND/OR OBSTRUCTIONS TO VISIBILITY. NOT ALL STATIONS ARE QUALITY CONTROLLED BY THE NATIONAL WEATHER SERVICE. USE DATA WITH CAUTION...ESPECIALLY DEWPOINT OBSERVATIONS. SCZ027-030-031-034>040-042>050-281100- ...SOUTH CAROLINA... CITY SKY/WX TMP DP RH WIND PRES REMARKS N CHARLESTON MOCLDY 82 73 74 SW8 29.88F WATERFRONT PRK N/A 84 N/A N/A SW7 N/A FORT JOHNSON NOT AVBL MOUNT PLEASANT FAIR 82 75 78 SW8 29.88S JOHNS ISLAND SUNNY 82 72 69 SW7 29.89F PINOPOLIS N/A 82 73 74 SW12 29.77F MONCKS CORNER N/A 81 75 83 SW8 29.86F SUMMERVILLE NOT AVBL BEAUFORT MCAS MOCLDY 82 74 76 W9 29.90F BEAUFORT ARPT FAIR 82 75 78 SW10 29.90S HILTON HEAD IS NOT AVBL GEORGETOWN NOT AVBL WALTERBORO PTSUNNY 79 77 94 SW7 29.89F ORANGEBURG MOCLDY 79 72 79 SW7 29.86F BARNWELL FAIR 81 73 78 SW7 29.88F AIKEN FAIR 81 73 78 SW7 29.90F MANNING FAIR 82 75 78 W5 29.85S KINGSTREE NOT AVBL COLUMBIA CLOUDY 83 72 69 SW7 29.84S SUMTER CLOUDY 80 74 80 SW9 29.82S FLORENCE CLOUDY 82 72 71 W7 29.82S MYRTLE BEACH CLEAR 82 72 69 SW6 29.83S N MYRTLE BEACH MOCLDY 82 72 71 W7 29.82S $$ GAZ063-065-086>088-099>101-113>116-118-119-134-136>141-150-281100- ...GEORGIA... CITY SKY/WX TMP DP RH WIND PRES REMARKS SAVANNAH ARPT MOCLDY 81 74 79 SW7 29.92F HUNTER AAF MOCLDY 79 75 88 SW7 29.91S FORT STEWART MOCLDY 80 75 86 SW7 29.93S STATESBORO NOT AVBL SYLVANIA PTSUNNY 79 76 91 W3 29.91F CLAXTON FAIR 81 79 94 W5 29.92F THOMSON CLOUDY 81 78 90 SW6 29.93S AUGUSTA-BUSH CLOUDY 81 72 74 SW9 29.86F AUGUSTA-DANIEL CLOUDY 83 73 72 VRB7 29.88F SWAINSBORO FAIR 81 81 100 W5 29.93F HX 91 VIDALIA N/A 79 77 94 SW8 29.94F ALMA PTCLDY 78 75 90 SW5 29.97R WAYCROSS CLEAR 81 79 94 W7 29.97S HX 90 JESUP NOT AVBL BRUNSWICK PTCLDY 81 75 83 SW7 29.96F SAINT SIMONS PTCLDY 79 76 90 SW10 29.96S $$ SCZ027-028-034-036>038-045-046-048>050-GAZ119-141-281100- ...LAKE AND SUPPLEMENTAL COASTAL OBSERVATIONS... STATION/POSITION TIME TEMP WIND PRES WAVE SWELL AIR SEA DIR/SP/G HT/PER HT/PER/DIR (UTC) (F) (DEG/KT/KT) (MB) (FT/S) (FT/S/D) UPR LAKE MARION NOT AVBL WINYAH BAY 0900 83 250/ 9 1011.0R LAKE MURRAY 0900 83 310/ 2/ 8 1010.2S ACE BASIN NERRS 0900 82 250/ 3 1012.0F FORT PULASKI 1000 81 230/ 6/ 9 1013.4S SAPELO ISLAND 0900 82 240/ 12 1014.0S $$ ANZ835-935-AMZ111-154-330-350-352-354-374-450-454-472-281100- ...C-MAN AND BUOY OBSERVATIONS... STATION/POSITION TIME TEMP WIND PRES WAVE SWELL AIR SEA DIR/SP/G HT/PER HT/PER/DIR (UTC) (F) (DEG/KT/KT) (MB) (FT/S) (FT/S/D) FOLLY BEACH CMAN 0900 82 240/ 7/ 10 1012.5R BUOY 41004 1000 84 83 240/ 17/ 19 1011.0S 5/ 6 2/10 BUOY 41008 1000 83 84 260/ 16/ 19 1013.5R 3/ 4 2/140/ 8 5E ST. MARYS GA 1000 85 N/A 2/10 FRYING PAN BUOY NOT AVBL BUOY 41025 1000 VRB 23/ 27 1007.6R 6/ 6 2/110/ 9 CAPE LOOKOUT NC 0900 83 230/ 16/ 22 1008.7R BUOY 41002 0909 81 80 240/ 16/ 19 1014.8R 6/ 7 2/140/ 9 BUOY 41010 1000 83 84 230/ 14/ 16 1016.0R 4/ 4 2/140/ 9 BUOY 41012 NOT AVBL ST AUGUSTINE FL 1000 78 240/ 7/ 9 1016.7R CAPERS NEARSHORE 0900 84 280/ 16/ 19 N/A FRIPP NEARSHORE NOT AVBL $$

USA.gov is the U.S. government's official web portal to all federal, state and local government web resources and services.